[[{"header":{"parameterUnit":"m.s-1","parameterCategory":1,"la1":30.2991,"la2":30.254,"lo1":-89.0895,"lo2":-89.0444,"dy":0.0017,"dx":0.0017,"nx":28,"ny":28,"refTime":"2023-11-16T09:00:00:Z","depth":0,"parameterNumber":2,"parameterNumberName":"U-component_of_WINDS"},"data":[0,0,0,0,0,0,0,0,0,0,0,0,0,0,0,0,0,0,0,0,0,0,0,0,0,0,0,0,0,0,0,0,0,0,0,0,0,0,0,0,0,0,0,0,0,0,0,0,0,0,0,0,0,0,0,0,0,0,0.365,0.365,0,0.3627,0.3626,0.3626,0.3646,0.3647,0.3648,0.3649,0.3622,0.362,0.3619,0,0,0,0,0,0,0,0,0,0,0,0,0,0.3709,0.3708,0.365,0.365,0.3649,0.3627,0.3626,0.3626,0.3646,0.3647,0.3648,0.3649,0.3622,0.362,0.3619,0,0,0,0,0,0,0,0,0,0,0,0,0,0.3685,0.3708,0.365,0.3657,0.3657,0.3627,0.3626,0.3626,0.3646,0.3647,0.3648,0.365,0.3623,0.3621,0.3618,0.3579,0,0,0.3611,0.361,0,0,0,0,0,0,0,0,0.3686,0.3682,0.3656,0.3656,0.3657,0.3641,0.3638,0.361,0.3646,0.365,0.3649,0.365,0.3627,0.3624,0.3617,0.3578,0.3577,0.3611,0.361,0.3609,0.3608,0,0,0,0,0,0,0,0.3688,0.3683,0.3641,0.3656,0.3656,0.366,0.3658,0.3632,0.3631,0.365,0.3651,0.3648,0.3627,0.3619,0.3617,0.3576,0.3611,0.3609,0.3608,0.3607,0.3504,0.3503,0,0,0,0,0,0,0.3689,0.3685,0.3641,0.364,0.3675,0.3658,0.3656,0.3644,0.3632,0.3631,0.3647,0.3649,0.3622,0.3619,0.3616,0.3569,0.3609,0.3607,0.3606,0.3505,0.3504,0.3502,0,0,0,0,0,0,0.369,0.3685,0.3642,0.3663,0.3658,0.3656,0.3643,0.3643,0.3635,0.363,0.363,0.3639,0.3623,0.3619,0.3588,0.3568,0.3606,0.3604,0.3507,0.3505,0.3503,0.3474,0,0,0,0,0,0,0.3692,0.3685,0.3671,0.3662,0.3657,0.3616,0.3642,0.3642,0.3632,0.3634,0.3623,0.3622,0.3624,0.3592,0.3586,0.3565,0.3602,0.3509,0.3506,0.3504,0.3477,0.3472,0.3467,0,0,0,0,0,0.3694,0.3663,0.367,0.3665,0.3639,0.3615,0.3611,0.3615,0.363,0.3615,0.3612,0.3622,0.3572,0.3588,0.3582,0.3561,0.351,0.3507,0.3504,0.3479,0.3473,0.3467,0,0,0,0,0,0,0.3668,0.3662,0.367,0.3635,0.3626,0.3618,0.3599,0.3608,0.3593,0.3596,0.3601,0.3598,0.3565,0.356,0.3579,0.3522,0.3543,0.3539,0.3526,0.352,0.3515,0.3516,0.36,0,0,0,0,0,0.3658,0.364,0.3636,0.3606,0.3601,0.3601,0.3591,0.3595,0.3585,0.358,0.3575,0.3563,0.3545,0.3532,0.3515,0.3477,0.3474,0.3459,0.3454,0.345,0.3446,0.3424,0.3417,0.3492,0.3492,0.3492,0,0,0.3638,0.3633,0.3621,0.3601,0.3594,0.3574,0.3597,0.3576,0.3561,0.3577,0.3547,0.3543,0.3531,0.3496,0.3481,0.3491,0.3425,0.3446,0.3443,0.344,0.342,0.3413,0.3407,0.349,0.349,0.3491,0,0,0.3591,0.3585,0.356,0.3552,0.3542,0.3542,0.3536,0.3528,0.3526,0.3497,0.3509,0.3491,0.3459,0.345,0.3441,0.3392,0.34,0.3386,0.3359,0.3338,0.3332,0.3327,0.3308,0.3301,0.3382,0.3382,0.3382,0,0.3566,0.3538,0.3545,0.3523,0.3513,0.3528,0.3502,0.3494,0.3478,0.3471,0.3483,0.3444,0.3437,0.34,0.3388,0.3381,0.3373,0.3386,0.3333,0.3327,0.3323,0.3305,0.3298,0.338,0.338,0.3381,0.3381,0,0.3508,0.3488,0.3469,0.3454,0.3443,0.3418,0.3421,0.3409,0.3414,0.3413,0.3384,0.3376,0.3357,0.3349,0.3354,0.3313,0.332,0.3332,0.3353,0.3314,0.3297,0.329,0.3378,0.3378,0.3379,0.3379,0,0,0.3441,0.3432,0.3425,0.3418,0.3409,0.3393,0.337,0.3353,0.3341,0.333,0.331,0.3283,0.3295,0.3285,0.3289,0.3271,0.3231,0.3286,0.3286,0.3275,0.3185,0.3174,0.3166,0.3238,0.3237,0.3236,0.3185,0,0.3393,0.3353,0.3359,0.3319,0.3301,0.3316,0.3295,0.3286,0.3285,0.3269,0.3267,0.3248,0.3266,0.326,0.3243,0.324,0.3213,0.3244,0.3217,0.3216,0.3218,0.3158,0.3146,0.3099,0.3179,0.3178,0.3177,0,0.333,0.3318,0.3277,0.3271,0.3263,0.3244,0.3229,0.3214,0.3204,0.3205,0.3194,0.3202,0.3177,0.32,0.3166,0.3187,0.3177,0.3174,0.3172,0.3168,0.3193,0.3151,0.3084,0.3076,0.3167,0.3168,0.3169,0,0.3284,0.3258,0.323,0.3224,0.3216,0.3202,0.3198,0.319,0.318,0.3167,0.316,0.3144,0.3134,0.3121,0.3124,0.314,0.3089,0.3112,0.3087,0.3087,0.3074,0.3074,0.3003,0.307,0.307,0.307,0.307,0,0.3228,0.3202,0.3209,0.3192,0.3163,0.3171,0.3142,0.3139,0.3132,0.3114,0.3126,0.3108,0.3114,0.3097,0.3099,0.3069,0.3066,0.3064,0.3065,0.3062,0.3062,0.3054,0.3057,0.3068,0.3069,0.3069,0.307,0,0.3171,0.3175,0.3145,0.3141,0.3139,0.3118,0.3114,0.3097,0.3098,0.3074,0.3069,0.307,0.305,0.3052,0.3029,0.3031,0.2994,0.3,0.2998,0.2998,0.2973,0.2974,0.2892,0.2882,0.2957,0.2957,0.2956,0,0.3134,0.3115,0.3109,0.3098,0.3093,0.3076,0.3065,0.3073,0.3061,0.3049,0.3034,0.3016,0.3001,0.2968,0.2966,0.2949,0.2953,0.2925,0.295,0.2948,0.295,0.2951,0.2948,0.292,0.2919,0.2918,0.2917,0,0.3068,0.3071,0.3056,0.3042,0.303,0.3019,0.3009,0.3,0.3006,0.2992,0.2973,0.2962,0.2939,0.292,0.2905,0.2899,0.2909,0.291,0.2903,0.2899,0.2898,0.2897,0.2982,0.2911,0.2912,0.2912,0.2913,0.2913,0.3019,0.3002,0.2995,0.2979,0.2972,0.2963,0.2947,0.2947,0.2931,0.2914,0.2919,0.2897,0.2888,0.2868,0.2861,0.2843,0.2853,0.2843,0.284,0.2837,0.2834,0.2903,0.284,0.284,0.2841,0.2841,0.2841,0,0.2952,0.2949,0.2934,0.292,0.2907,0.2919,0.2909,0.2896,0.2877,0.2869,0.2855,0.2832,0.2814,0.2811,0.2794,0.278,0.2784,0.2775,0.2775,0.2773,0.2827,0.2834,0.2772,0.2772,0.2772,0.2772,0.2772,0.2772,0.2915,0.2888,0.289,0.2859,0.2856,0.2835,0.2828,0.282,0.2813,0.2788,0.2773,0.2772,0.2766,0.2748,0.2732,0.2731,0.2724,0.2713,0.2714,0.2763,0.277,0.2776,0.2783,0.2712,0.2711,0.2662,0.2661,0.2661]},{"header":{"parameterUnit":"m.s-1","parameterCategory":1,"la1":30.2991,"la2":30.254,"lo1":-89.0895,"lo2":-89.0444,"dy":0.0017,"dx":0.0017,"nx":28,"ny":28,"refTime":"2023-11-16T09:00:00:Z","depth":0,"parameterNumber":3,"parameterNumberName":"V-component_of_WINDS"},"data":[0,0,0,0,0,0,0,0,0,0,0,0,0,0,0,0,0,0,0,0,0,0,0,0,0,0,0,0,0,0,0,0,0,0,0,0,0,0,0,0,0,0,0,0,0,0,0,0,0,0,0,0,0,0,0,0,0,0,-1.4757,-1.4757,0,-1.4815,-1.4816,-1.4817,-1.48,-1.4799,-1.4798,-1.4797,-1.4857,-1.486,-1.4863,0,0,0,0,0,0,0,0,0,0,0,0,0,-1.4631,-1.4633,-1.4756,-1.4757,-1.4758,-1.4815,-1.4816,-1.4817,-1.4801,-1.4799,-1.4798,-1.4796,-1.4856,-1.486,-1.4863,0,0,0,0,0,0,0,0,0,0,0,0,0,-1.4687,-1.4634,-1.4756,-1.4757,-1.4757,-1.4815,-1.4816,-1.4817,-1.4801,-1.4799,-1.4797,-1.4796,-1.4855,-1.4859,-1.4863,-1.4924,0,0,-1.4876,-1.4877,0,0,0,0,0,0,0,0,-1.4684,-1.4692,-1.4756,-1.4757,-1.4758,-1.4799,-1.4794,-1.4853,-1.4801,-1.4784,-1.4797,-1.4795,-1.4839,-1.4845,-1.4859,-1.4927,-1.493,-1.4876,-1.4879,-1.488,-1.4881,0,0,0,0,0,0,0,-1.468,-1.4689,-1.478,-1.4757,-1.4758,-1.4754,-1.476,-1.4805,-1.4821,-1.4786,-1.4785,-1.4792,-1.4839,-1.4856,-1.4861,-1.4931,-1.4876,-1.488,-1.4882,-1.4884,-1.5053,-1.5055,0,0,0,0,0,0,-1.4675,-1.4686,-1.4778,-1.4782,-1.4716,-1.4758,-1.4765,-1.4787,-1.4821,-1.4824,-1.4793,-1.4791,-1.4849,-1.4856,-1.4863,-1.4938,-1.488,-1.4884,-1.4886,-1.5051,-1.5054,-1.5056,0,0,0,0,0,0,-1.4673,-1.4684,-1.4776,-1.4734,-1.4745,-1.4762,-1.4788,-1.4789,-1.4806,-1.4826,-1.4829,-1.4807,-1.4848,-1.4857,-1.491,-1.494,-1.4886,-1.489,-1.5049,-1.5052,-1.5055,-1.5089,0,0,0,0,0,0,-1.4669,-1.4683,-1.4706,-1.4734,-1.4747,-1.4821,-1.4789,-1.4792,-1.4813,-1.481,-1.484,-1.4843,-1.4848,-1.4904,-1.4914,-1.4945,-1.4893,-1.5046,-1.505,-1.5054,-1.5085,-1.5092,-1.5099,0,0,0,0,0,-1.4665,-1.4713,-1.4707,-1.4718,-1.4776,-1.4823,-1.483,-1.4835,-1.4815,-1.4839,-1.4853,-1.4842,-1.4935,-1.4909,-1.492,-1.4953,-1.5044,-1.5049,-1.5054,-1.5082,-1.5091,-1.5099,0,0,0,0,0,0,-1.4687,-1.4716,-1.4711,-1.4769,-1.4794,-1.482,-1.485,-1.4844,-1.4875,-1.4871,-1.4875,-1.4882,-1.4936,-1.4949,-1.492,-1.5015,-1.4987,-1.4994,-1.5004,-1.5013,-1.502,-1.5017,-1.4896,0,0,0,0,0,-1.4699,-1.4734,-1.4758,-1.4807,-1.482,-1.4833,-1.4853,-1.4854,-1.488,-1.489,-1.4908,-1.4933,-1.4968,-1.4991,-1.5024,-1.5086,-1.5094,-1.5114,-1.5121,-1.5127,-1.5134,-1.517,-1.518,-1.5071,-1.5071,-1.5071,0,0,-1.4724,-1.4744,-1.4766,-1.4812,-1.4831,-1.4868,-1.4842,-1.4881,-1.4909,-1.4896,-1.4948,-1.4961,-1.499,-1.5048,-1.5074,-1.5061,-1.5165,-1.5133,-1.5137,-1.5141,-1.5175,-1.5186,-1.5195,-1.5074,-1.5074,-1.5073,0,0,-1.4788,-1.4806,-1.485,-1.487,-1.49,-1.4909,-1.4919,-1.4947,-1.4956,-1.5007,-1.4999,-1.5032,-1.5092,-1.5113,-1.5132,-1.5206,-1.5198,-1.5216,-1.5254,-1.5289,-1.5297,-1.5305,-1.5333,-1.5343,-1.5222,-1.5222,-1.5223,0,-1.4815,-1.487,-1.4873,-1.4915,-1.4936,-1.4926,-1.4972,-1.4991,-1.503,-1.5045,-1.5029,-1.5106,-1.5124,-1.5188,-1.5206,-1.5221,-1.5234,-1.5214,-1.5296,-1.5303,-1.5311,-1.5338,-1.5348,-1.5225,-1.5224,-1.5224,-1.5224,0,-1.4903,-1.4942,-1.4974,-1.5013,-1.5037,-1.508,-1.5091,-1.5115,-1.5114,-1.5125,-1.5178,-1.52,-1.5239,-1.5253,-1.5253,-1.5318,-1.5309,-1.5294,-1.5267,-1.5323,-1.5349,-1.5359,-1.5228,-1.5227,-1.5226,-1.5226,0,0,-1.4984,-1.5025,-1.5037,-1.5055,-1.5088,-1.5118,-1.5161,-1.5199,-1.5221,-1.5248,-1.5285,-1.5336,-1.5323,-1.5345,-1.5346,-1.5377,-1.5436,-1.5358,-1.5359,-1.5374,-1.5512,-1.5525,-1.5537,-1.5431,-1.5433,-1.5434,-1.5511,0,-1.5053,-1.5129,-1.5134,-1.5203,-1.524,-1.5231,-1.5269,-1.5293,-1.5304,-1.5338,-1.5349,-1.5387,-1.5366,-1.5379,-1.5408,-1.5423,-1.5465,-1.5417,-1.5467,-1.5469,-1.5462,-1.555,-1.5563,-1.5634,-1.552,-1.5522,-1.5523,0,-1.5143,-1.5175,-1.5248,-1.5277,-1.5293,-1.5326,-1.5363,-1.5394,-1.5422,-1.5428,-1.5452,-1.545,-1.5495,-1.5464,-1.5527,-1.5495,-1.5515,-1.5526,-1.5528,-1.5535,-1.5501,-1.556,-1.5656,-1.5668,-1.5539,-1.5537,-1.5536,0,-1.5198,-1.5258,-1.531,-1.5326,-1.536,-1.5385,-1.54,-1.5426,-1.5449,-1.5481,-1.5496,-1.5532,-1.5552,-1.558,-1.5588,-1.5564,-1.5651,-1.5621,-1.5659,-1.5659,-1.5679,-1.5678,-1.5782,-1.5689,-1.5689,-1.5688,-1.5688,0,-1.5275,-1.5321,-1.5335,-1.5368,-1.5419,-1.5424,-1.5474,-1.5488,-1.5512,-1.5547,-1.5541,-1.5575,-1.5582,-1.5617,-1.5623,-1.5676,-1.5684,-1.5691,-1.5693,-1.5693,-1.5692,-1.5708,-1.5704,-1.5691,-1.5691,-1.569,-1.569,0,-1.5345,-1.5356,-1.5413,-1.5442,-1.545,-1.5487,-1.5511,-1.5543,-1.5553,-1.5598,-1.5609,-1.5626,-1.5667,-1.5677,-1.5725,-1.5729,-1.5792,-1.5788,-1.5783,-1.5784,-1.5822,-1.5819,-1.5941,-1.5958,-1.5852,-1.5853,-1.5854,0,-1.5395,-1.5431,-1.5463,-1.5487,-1.5504,-1.5541,-1.5565,-1.5571,-1.5597,-1.5632,-1.5659,-1.57,-1.5733,-1.5799,-1.5816,-1.5853,-1.5851,-1.5891,-1.5857,-1.5857,-1.5854,-1.5853,-1.5858,-1.5898,-1.5899,-1.59,-1.5901,0,-1.5483,-1.5488,-1.5522,-1.556,-1.5589,-1.5618,-1.5646,-1.5666,-1.5676,-1.5705,-1.5747,-1.5772,-1.5823,-1.5864,-1.5902,-1.5918,-1.5912,-1.5911,-1.5923,-1.5925,-1.5921,-1.5926,-1.5804,-1.5909,-1.5908,-1.5908,-1.5907,-1.5907,-1.5547,-1.5578,-1.5607,-1.5646,-1.5668,-1.5695,-1.5727,-1.5742,-1.5777,-1.5819,-1.582,-1.5867,-1.5895,-1.5946,-1.5964,-1.6001,-1.5989,-1.6005,-1.6009,-1.6013,-1.6018,-1.5914,-1.6008,-1.6007,-1.6007,-1.6007,-1.6007,0,-1.5636,-1.5655,-1.5691,-1.5731,-1.5763,-1.5753,-1.5785,-1.5812,-1.5853,-1.588,-1.5913,-1.5962,-1.6002,-1.6022,-1.6062,-1.6088,-1.6086,-1.6098,-1.6097,-1.6102,-1.6025,-1.6013,-1.6099,-1.6099,-1.6099,-1.6099,-1.6099,-1.6099,-1.5687,-1.5741,-1.5749,-1.5814,-1.5832,-1.5878,-1.5897,-1.5922,-1.5944,-1.6,-1.6033,-1.6046,-1.607,-1.6112,-1.6148,-1.6153,-1.6169,-1.6183,-1.6187,-1.6116,-1.6107,-1.6098,-1.6086,-1.6186,-1.6186,-1.626,-1.6261,-1.6262]}]]